When you browse on this site, cookies collect data to enhance your experience and personalize the content and advertising you see.
Visit our Privacy Policy to learn more. By continuing to use the site, you agree to this use of cookies and data.
  • In Hungary
  • List of Countries
  • For 7 days
  • Water Temperature
  • Satellite Maps
  • Weather Map
  • News
  • Weather Widgets
  • user-avatar
    Login

    Hourly Weather Mersrags

    Today, 26 June, Wednesday

    Time Temperature Precipitation Wind Pressure Humidity
    00:00 +17°C° 0 mm 3 mps 767 mmHg 65%
    01:00 +17°C° 0 mm 3 mps 767 mmHg 66%
    02:00 +16°C° 0 mm 3 mps 767 mmHg 71%
    03:00 +16°C° 0 mm 3 mps 766 mmHg 74%
    04:00 +16°C° 0 mm 3 mps 766 mmHg 77%
    05:00 +16°C° 0 mm 3 mps 765 mmHg 79%
    06:00 +18°C° 0 mm 2 mps 765 mmHg 76%
    07:00 +19°C° 0 mm 2 mps 764 mmHg 72%
    08:00 +22°C° 0 mm 1 mps 764 mmHg 69%
    09:00 +23°C° 0 mm 1 mps 764 mmHg 62%
    10:00 +24°C° 0 mm 1 mps 763 mmHg 56%
    11:00 +26°C° 0 mm 1 mps 763 mmHg 49%
    12:00 +26°C° 0 mm 1 mps 763 mmHg 49%
    13:00 +27°C° 0 mm 2 mps 762 mmHg 49%
    14:00 +27°C° 0 mm 3 mps 762 mmHg 49%
    15:00 +26°C° 0 mm 3 mps 761 mmHg 54%
    16:00 +26°C° 0 mm 3 mps 760 mmHg 58%
    17:00 +25°C° 0 mm 3 mps 759 mmHg 62%
    18:00 +24°C° 0.1 mm 3 mps 759 mmHg 67%
    19:00 +22°C° 0.1 mm 3 mps 758 mmHg 71%
    20:00 +21°C° 0.1 mm 2 mps 758 mmHg 76%
    21:00 +20°C° 0.2 mm 2 mps 757 mmHg 79%
    22:00 +19°C° 0.2 mm 2 mps 757 mmHg 83%
    23:00 +18°C° 0.2 mm 2 mps 756 mmHg 86%

    Tomorrow, 27 June, Thursday

    Time Temperature Precipitation Wind Pressure Humidity
    00:00 +18°C° 0.9 mm 2 mps 756 mmHg 88%
    01:00 +17°C° 0.9 mm 2 mps 755 mmHg 91%
    02:00 +17°C° 0.9 mm 2 mps 755 mmHg 93%
    03:00 +17°C° 0.2 mm 4 mps 754 mmHg 94%
    04:00 +16°C° 0.2 mm 5 mps 754 mmHg 94%
    05:00 +16°C° 0.2 mm 6 mps 754 mmHg 94%
    06:00 +16°C° 0 mm 7 mps 754 mmHg 92%
    07:00 +16°C° 0 mm 7 mps 755 mmHg 90%
    08:00 +16°C° 0 mm 8 mps 755 mmHg 88%
    09:00 +16°C° 0.1 mm 8 mps 755 mmHg 83%
    10:00 +16°C° 0.1 mm 8 mps 756 mmHg 78%
    11:00 +17°C° 0.1 mm 8 mps 756 mmHg 73%
    12:00 +18°C° 0 mm 9 mps 756 mmHg 67%
    13:00 +18°C° 0 mm 10 mps 756 mmHg 61%
    14:00 +19°C° 0 mm 11 mps 757 mmHg 55%
    15:00 +18°C° 0 mm 11 mps 757 mmHg 56%
    16:00 +18°C° 0 mm 11 mps 757 mmHg 57%
    17:00 +17°C° 0 mm 11 mps 757 mmHg 59%
    18:00 +17°C° 0 mm 11 mps 757 mmHg 60%
    19:00 +16°C° 0 mm 11 mps 757 mmHg 62%
    20:00 +14°C° 0 mm 11 mps 757 mmHg 64%
    21:00 +14°C° 0 mm 11 mps 757 mmHg 66%
    22:00 +14°C° 0 mm 11 mps 758 mmHg 67%
    23:00 +13°C° 0 mm 10 mps 758 mmHg 69%

    Day after tomorrow, 28 June, Friday

    Time Temperature Precipitation Wind Pressure Humidity
    00:00 +13°C° 0 mm 10 mps 758 mmHg 68%
    01:00 +13°C° 0 mm 10 mps 758 mmHg 68%
    02:00 +14°C° 0 mm 10 mps 758 mmHg 68%
    03:00 +15°C° 0 mm 9 mps 758 mmHg 68%
    04:00 +13°C° 0 mm 9 mps 758 mmHg 68%
    05:00 +13°C° 0 mm 9 mps 758 mmHg 68%
    06:00 +15°C° 0 mm 9 mps 758 mmHg 62%
    07:00 +16°C° 0 mm 10 mps 759 mmHg 56%
    08:00 +17°C° 0 mm 10 mps 759 mmHg 50%
    09:00 +17°C° 0 mm 10 mps 759 mmHg 48%
    10:00 +18°C° 0 mm 9 mps 759 mmHg 46%
    11:00 +18°C° 0 mm 9 mps 759 mmHg 44%
    12:00 +19°C° 0 mm 9 mps 759 mmHg 44%
    13:00 +19°C° 0 mm 9 mps 760 mmHg 44%
    14:00 +19°C° 0 mm 9 mps 760 mmHg 44%
    15:00 +18°C° 0 mm 9 mps 760 mmHg 46%
    16:00 +18°C° 0 mm 9 mps 760 mmHg 47%
    17:00 +17°C° 0 mm 10 mps 760 mmHg 48%
    18:00 +16°C° 0 mm 9 mps 760 mmHg 53%
    19:00 +15°C° 0 mm 9 mps 760 mmHg 58%
    20:00 +13°C° 0 mm 8 mps 760 mmHg 62%
    21:00 +12°C° 0 mm 8 mps 761 mmHg 66%
    22:00 +12°C° 0 mm 7 mps 761 mmHg 69%
    23:00 +11°C° 0 mm 7 mps 761 mmHg 72%

    29 June, Saturday

    Time Temperature Precipitation Wind Pressure Humidity
    00:00 +11°C° 0 mm 7 mps 761 mmHg 70%
    01:00 +11°C° 0 mm 7 mps 760 mmHg 69%
    02:00 +11°C° 0 mm 8 mps 760 mmHg 67%
    03:00 +12°C° 0 mm 7 mps 760 mmHg 68%
    04:00 +12°C° 0 mm 7 mps 760 mmHg 70%
    05:00 +13°C° 0 mm 6 mps 760 mmHg 71%
    06:00 +15°C° 0 mm 6 mps 760 mmHg 69%
    07:00 +16°C° 0 mm 6 mps 760 mmHg 66%
    08:00 +17°C° 0 mm 7 mps 760 mmHg 63%
    09:00 +16°C° 0.1 mm 6 mps 760 mmHg 70%
    10:00 +16°C° 0.1 mm 6 mps 760 mmHg 76%
    11:00 +15°C° 0.1 mm 6 mps 760 mmHg 82%
    12:00 +17°C° 0 mm 7 mps 760 mmHg 75%
    13:00 +18°C° 0 mm 7 mps 759 mmHg 67%
    14:00 +21°C° 0 mm 8 mps 759 mmHg 60%
    15:00 +21°C° 0 mm 7 mps 759 mmHg 60%
    16:00 +21°C° 0 mm 7 mps 759 mmHg 60%
    17:00 +21°C° 0 mm 7 mps 759 mmHg 60%
    18:00 +20°C° 0 mm 7 mps 759 mmHg 65%
    19:00 +19°C° 0 mm 6 mps 759 mmHg 70%
    20:00 +17°C° 0 mm 5 mps 759 mmHg 74%
    21:00 +16°C° 0 mm 5 mps 759 mmHg 78%
    22:00 +15°C° 0 mm 5 mps 760 mmHg 82%
    23:00 +14°C° 0 mm 4 mps 760 mmHg 85%

    30 June, Sunday

    Time Temperature Precipitation Wind Pressure Humidity
    00:00 +14°C° 0 mm 4 mps 759 mmHg 83%
    01:00 +14°C° 0 mm 4 mps 759 mmHg 81%
    02:00 +14°C° 0 mm 4 mps 759 mmHg 79%
    03:00 +14°C° 0 mm 4 mps 759 mmHg 79%
    04:00 +14°C° 0 mm 4 mps 759 mmHg 79%
    05:00 +14°C° 0 mm 4 mps 759 mmHg 79%
    06:00 +17°C° 0 mm 4 mps 759 mmHg 76%
    07:00 +19°C° 0 mm 4 mps 758 mmHg 72%
    08:00 +20°C° 0 mm 4 mps 758 mmHg 69%
    09:00 +22°C° 0 mm 4 mps 758 mmHg 66%
    10:00 +25°C° 0 mm 5 mps 758 mmHg 63%
    11:00 +26°C° 0 mm 6 mps 758 mmHg 59%
    12:00 +27°C° 0 mm 6 mps 757 mmHg 55%
    13:00 +28°C° 0 mm 6 mps 757 mmHg 50%
    14:00 +28°C° 0 mm 6 mps 756 mmHg 46%
    15:00 +28°C° 0 mm 6 mps 756 mmHg 47%
    16:00 +27°C° 0 mm 7 mps 755 mmHg 47%
    17:00 +27°C° 0 mm 7 mps 755 mmHg 48%
    18:00 +26°C° 0 mm 6 mps 754 mmHg 54%
    19:00 +24°C° 0 mm 6 mps 754 mmHg 60%
    20:00 +23°C° 0 mm 6 mps 753 mmHg 65%
    21:00 +22°C° 0 mm 6 mps 753 mmHg 67%
    22:00 +22°C° 0 mm 7 mps 753 mmHg 68%
    23:00 +22°C° 0 mm 7 mps 752 mmHg 70%

    1 July, Monday

    Time Temperature Precipitation Wind Pressure Humidity
    00:00 +21°C° 0 mm 7 mps 752 mmHg 73%
    01:00 +21°C° 0 mm 7 mps 752 mmHg 76%
    02:00 +21°C° 0 mm 7 mps 751 mmHg 79%
    03:00 +20°C° 0 mm 6 mps 751 mmHg 79%
    04:00 +20°C° 0 mm 6 mps 751 mmHg 80%
    05:00 +19°C° 0 mm 6 mps 751 mmHg 81%
    06:00 +19°C° 0 mm 6 mps 752 mmHg 77%
    07:00 +20°C° 0 mm 6 mps 752 mmHg 73%
    08:00 +20°C° 0 mm 6 mps 752 mmHg 69%
    09:00 +21°C° 0 mm 6 mps 752 mmHg 65%
    10:00 +22°C° 0 mm 6 mps 753 mmHg 61%
    11:00 +22°C° 0 mm 6 mps 753 mmHg 57%
    12:00 +22°C° 0 mm 7 mps 753 mmHg 56%
    13:00 +22°C° 0 mm 7 mps 753 mmHg 54%
    14:00 +22°C° 0 mm 7 mps 753 mmHg 53%
    15:00 +22°C° 0 mm 7 mps 753 mmHg 53%
    16:00 +22°C° 0 mm 7 mps 753 mmHg 54%
    17:00 +21°C° 0 mm 6 mps 753 mmHg 54%
    18:00 +21°C° 0 mm 6 mps 753 mmHg 60%
    19:00 +20°C° 0 mm 6 mps 752 mmHg 66%
    20:00 +19°C° 0 mm 5 mps 752 mmHg 71%
    21:00 +17°C° 0 mm 6 mps 752 mmHg 76%
    22:00 +16°C° 0 mm 6 mps 752 mmHg 82%
    23:00 +15°C° 0 mm 7 mps 752 mmHg 87%
    Show more